Regional Weather Roundup
Issued by NWS

Home | Current Version | Previous Version | Text Only | Print | Product List | Glossary On
Versions: 1 2 3 4 5 6 7 8 9 10 11 12 13 14 15 16 17 18 19 20 21 22 23 24 25 26 27 28 29 30 31 32 33 34 35 36 37
000
ASUS46 KSEW 230210
RWRWA

WASHINGTON REGIONAL WEATHER ROUNDUP
NATIONAL WEATHER SERVICE SEATTLE WA
700 PM PDT WED OCT 22 2014

NOTE:"FAIR" INDICATES FEW OR NO CLOUDS BELOW 12,000 FEET WITH NO
SIGNIFICANT WEATHER AND/OR OBSTRUCTIONS TO VISIBILITY.

WAZ505-507>509-230300-
SEATTLE, TACOMA, EVERETT, AND VICINITY

CITY           SKY/WX    TMP DP  RH WIND       PRES   REMARKS
EVERETT        CLOUDY    54  50  86 SE12G22   29.56F
BOEING FIELD   LGT RAIN  58  52  80 SE14      29.56F
RENTON         LGT RAIN  55  54  96 SE7       29.56F
SEATAC AIRPORT LGT RAIN  56  52  86 SE15      29.57F
JBLM-MCCHORD   CLOUDY    55  54  96 SE9       29.58F
PUYALLUP       NOT AVBL
JBLM-FT LEWIS  DRIZZLE   55  54  95 SE6       29.58S
TACOMA NARROWS LGT RAIN  56  51  84 S9        29.58F
$$

WAZ001-503-506-510-514-515-230300-
NORTH INTERIOR

CITY           SKY/WX    TMP DP  RH WIND       PRES   REMARKS
BELLINGHAM     CLOUDY    56  50  80 E8G20     29.51F
FRIDAY HARBOR  LGT RAIN  55  52  89 SE16G24   29.50F
EASTSOUND      CLOUDY    57  52  82 SE9G24    29.47F
PORT ANGELES     N/A    N/A N/A N/A MISG      29.50F
NAS WHIDBEY    CLOUDY    58  52  80 SE17G24   29.51F
BURLINGTON     CLOUDY   N/A N/A N/A E10       29.55F
$$

WAZ020-022-039-040-504-511-512-230300-
SOUTHWEST INTERIOR

CITY           SKY/WX    TMP DP  RH WIND       PRES   REMARKS
SHELTON        LGT RAIN  55  53  93 SE7       29.55S FOG
OLYMPIA        LGT RAIN  55  52  89 S12       29.58R
CHEHALIS       CLOUDY    57  55  94 S14       29.60S
KELSO          CLOUDY    57  52  82 SE12G22   29.69S
VANCOUVER      LGT RAIN  57  55  93 SE7       29.69F
SCAPPOOSE, OR  CLOUDY    56  55  97 E5        29.67S
PORTLAND, OR   LGT RAIN  58  56  93 S14       29.70S
$$

WAZ021-516-517-230300-
WASHINGTON COAST

CITY           SKY/WX    TMP DP  RH WIND       PRES   REMARKS
FORKS          LGT RAIN  53  53 100 S6        29.52R FOG
HOQUIAM        CLOUDY    57  55  93 S18       29.56F
ASTORIA, OR    LGT RAIN  58  53  84 S21G39    29.61R
$$

WAZ019-023-024-040-518-519-230300-
CASCADE MOUNTAINS AND COLUMBIA GORGE

CITY           SKY/WX    TMP DP  RH WIND       PRES   REMARKS
STAMPEDE PASS  NOT AVBL
TROUTDALE, OR  LGT RAIN  57  55  93 E5        29.71S
THE DALLES, OR LGT RAIN  57  53  86 NW8       29.70R
$$

WAZ026-027-041>044-520-521-230300-
EAST SLOPES

CITY           SKY/WX    TMP DP  RH WIND       PRES   REMARKS
OMAK           RAIN      50  49  96 CALM      29.67F FOG
WENATCHEE      LGT RAIN  50  47  89 W5        29.67F
ELLENSBURG     CLOUDY    55  50  83 E7        29.67S
YAKIMA         CLOUDY    60  50  69 S12       29.67S
$$

WAZ028-034-035-230300-
COLUMBIA BASIN

CITY           SKY/WX    TMP DP  RH WIND       PRES   REMARKS
EPHRATA        LGT RAIN  54  52  93 NE3       29.67F
MOSES LAKE     LGT RAIN  56  51  84 SE17      29.68F
PASCO          LGT RAIN  61  54  77 SE14      29.70F
HERMISTON, OR  LGT RAIN  60  52  74 SE8       29.69F
$$

WAZ036>038-230300-
NORTHEAST WASHINGTON

CITY           SKY/WX    TMP DP  RH WIND       PRES   REMARKS
SPOKANE GEIGER LGT RAIN  50  49  96 E3        29.79F
SPOKANE FELTS  LGT RAIN  52  50  93 CALM      29.80F
FAIRCHILD AFB  LGT RAIN  50  50  98 E3        29.79F
COEURDALENE,ID CLOUDY    52  45  76 N7        29.80F
DEER PARK      RAIN      49  48  97 E7        29.80F
$$

WAZ029>033-230300-
SOUTHEAST WASHINGTON

CITY           SKY/WX    TMP DP  RH WIND       PRES   REMARKS
PULLMAN        CLOUDY    60  34  37 S14       29.82F
LEWISTON, ID   CLOUDY    66  34  30 S6        29.78F
WALLA WALLA    LGT RAIN  68  37  32 S17G26    29.75R
PENDLETON, OR  LGT RAIN  56  48  74 E6        29.75R
$$



USA.gov is the U.S. government's official web portal to all federal, state and local government web resources and services.